Location: Del Amo
(33.8464°N, 118.2104°W)
Time: 22:19:51
(UTC+00:00)

Altair - Visible Passes

Search period start: 11 September 2024 00:00
Search period end: 21 September 2024 00:00
Orbit: 1501 x 1682 km, 47.2° (Epoch: 11 September)

Date Brightness Start Highest point End Pass type
(mag) Time Alt. Az. Time Alt. Az. Time Alt. Az.
11 Sep 8.8 09:18:15 29° E 09:18:15 29° E 09:23:58 10° ENE visible
11 Sep 7.6 11:16:16 50° WSW 11:19:29 79° NW 11:29:44 10° NE visible
12 Sep 9.1 08:54:30 22° E 08:54:30 22° E 08:58:30 10° ENE visible
12 Sep 7.4 10:52:32 67° WSW 10:54:13 84° NW 11:04:28 10° NE visible
12 Sep 8.4 12:50:46 10° W 13:00:14 42° NNW 13:09:46 10° NE visible
13 Sep 9.4 08:30:45 16° E 08:30:45 16° E 08:32:58 10° ENE visible
13 Sep 7.4 10:28:46 87° WSW 10:28:57 90° NW 10:39:11 10° NE visible
13 Sep 8.3 12:26:48 15° W 12:34:50 44° NNW 12:44:26 10° NE visible
14 Sep 9.6 08:06:57 11° ENE 08:06:57 11° ENE 08:07:23 10° ENE visible
14 Sep 7.6 10:04:58 72° ENE 10:04:58 72° ENE 10:13:55 10° NE visible
14 Sep 8.2 12:02:59 22° WNW 12:09:27 45° NNW 12:19:07 10° NE visible
15 Sep 8.0 09:41:09 55° ENE 09:41:09 55° ENE 09:48:37 10° NE visible
15 Sep 8.1 11:39:10 29° WNW 11:44:03 47° NNW 11:53:48 10° NE visible
16 Sep 8.4 09:17:18 42° ENE 09:17:18 42° ENE 09:23:20 10° NE visible
16 Sep 8.1 11:15:18 38° WNW 11:18:41 49° NNW 11:28:29 10° NE visible
17 Sep 8.8 08:53:25 31° ENE 08:53:25 31° ENE 08:58:03 10° ENE visible
17 Sep 7.9 10:51:26 47° NW 10:53:19 51° NNW 11:03:11 10° NE visible
17 Sep 8.6 12:51:01 10° WNW 13:00:16 38° N 13:09:32 10° ENE visible
18 Sep 9.1 08:29:32 23° ENE 08:29:32 23° ENE 08:32:44 10° ENE visible
18 Sep 7.9 10:27:33 54° NNW 10:27:57 54° NNW 10:37:53 10° NE visible
18 Sep 8.6 12:25:37 10° WNW 12:34:50 38° N 12:44:07 10° ENE visible
19 Sep 9.4 08:05:38 17° ENE 08:05:38 17° ENE 08:07:24 10° ENE visible
19 Sep 8.0 10:03:39 55° N 10:03:39 55° N 10:12:36 10° NE visible
19 Sep 8.6 12:01:40 15° WNW 12:09:25 38° N 12:18:41 10° ENE visible
20 Sep 9.7 07:41:43 11° ENE 07:41:43 11° ENE 07:42:04 10° ENE visible
20 Sep 8.2 09:39:44 49° NNE 09:39:44 49° NNE 09:47:19 10° NE visible
20 Sep 8.5 11:37:45 20° WNW 11:43:59 38° N 11:53:16 10° ENE visible
